{"data":{"norad_id":64883,"intl_designator":"2025-155H","name":"2025-155H","alt_names":[],"object_type":"PAYLOAD","status":"ACTIVE","operator":null,"country":"TBD","launch_date":"2025-07-25","launch_site_code":"VOSTO","launch_vehicle":null,"mission":null,"orbit_class":"UNKNOWN","rcs_meters":null,"size_class":null,"mass_kg":null,"dimensions":null,"purposes":[],"wikipedia_slug":null,"has_3d_model":false,"image_url":null,"decayed_at":null,"tle_current":{"epoch":"2026-05-25T04:41:25.970208Z","epoch_age_seconds":57860,"freshness":"FRESH","line1":"1 64883U 25155H   26145.19543947  .00008693  00000+0  31007-3 0  9996","line2":"2 64883  97.4558 113.6348 0005227 252.2880 107.7790 15.29119764 77244","mean_motion":15.29119764,"eccentricity":0.0005227,"inclination_deg":97.4558,"raan_deg":113.6348,"arg_perigee_deg":252.288,"mean_anomaly_deg":107.779,"bstar":0.00031007,"rev_number":7724,"period_min":94.171825772046,"perigee_km":474.85842401726,"apogee_km":482.02629207816,"semimajor_km":6856.5793580477,"source":"CELESTRAK","updated_at":"2026-05-25T13:38:04.871677Z"}}}